Regional Weather Roundup
Issued by NWS

Home | Current Version | Previous Version | Text Only | Print | Product List | Glossary Off
Versions: 1 2 3 4 5 6 7 8 9 10 11 12 13 14 15 16 17 18 19 20 21 22 23 24 25 26 27 28 29 30 31 32 33 34 35 36 37 38 39 40 41 42 43 44 45 46 47 48 49 50

000
ASUS43 KLMK 231510
RWRKY
KENTUCKY REGIONAL WEATHER ROUNDUP
NATIONAL WEATHER SERVICE LOUISVILLE KY
1100 AM EDT SUN JUL 23 2017

NOTE "FAIR" INDICATES FEW OR NO CLOUDS BELOW 12,000 FEET
WITH NO SIGNIFICANT WEATHER AND/OR OBSTRUCTIONS TO VISIBILITY.

KYZ001>023-026-027-061>063-070>075-231600-
WESTERN AND SOUTH CENTRAL KENTUCKY

CITY           SKY/WX    TMP DP  RH WIND       PRES   REMARKS
PADUCAH        MOSUNNY   83  68  60 E7        29.90F
HENDERSON      PTSUNNY   77  72  84 SE10      29.90F
OWENSBORO      CLOUDY    75  71  87 SE8       29.90F
HOPKINSVILLE   MOSUNNY   85  74  69 W6        29.91S HX  92
BOWLING GREEN  CLOUDY    77  70  79 E9        29.94S
GLASGOW        PTSUNNY   73  69  87 NE8       29.96F
$$

KYZ024-025-028>034-038-045-046-053-231600-
NORTH CENTRAL KENTUCKY

CITY           SKY/WX    TMP DP  RH WIND       PRES   REMARKS
LOUISVILLE/SDF LGT RAIN  73  70  90 SE6       29.91F
LOUISVILLE/LOU LGT RAIN  73  71  93 CALM      29.93F FOG
FORT KNOX      CLOUDY    70  70 100 SE5       29.91F
$$

KYZ035>037-039>044-047>052-055>060-089>105-231600-
NORTHEAST KENTUCKY

CITY           SKY/WX    TMP DP  RH WIND       PRES   REMARKS
LEXINGTON      RAIN      71  65  81 W23G37    29.94R
COVINGTON      LGT RAIN  71  70  96 W13       29.90R
FRANKFORT      TSTM      72  67  84 W9        29.95R
$$

KYZ054-064>069-076>088-106>120-231600-
SOUTHEAST KENTUCKY

CITY           SKY/WX    TMP DP  RH WIND       PRES   REMARKS
JACKSON        CLOUDY    77  71  82 CALM      29.94R
LONDON         CLOUDY    82  69  64 SW7       29.95F
SOMERSET       CLOUDY    81  66  61 SW3       29.96S
MIDDLESBORO    MOSUNNY   87  73  62 W3        29.96F HX  94
MONTICELLO     CLOUDY    85  75  72 VRB7      29.97S HX  93
$$





USA.gov is the U.S. government's official web portal to all federal, state and local government web resources and services.